EDT,Max TemperatureF,Mean TemperatureF,Min TemperatureF,Max Dew PointF,MeanDew PointF,Min DewpointF,Max Humidity, Mean Humidity, Min Humidity, Max Sea Level PressureIn, Mean Sea Level PressureIn, Min Sea Level PressureIn, Max VisibilityMiles, Mean VisibilityMiles, Min VisibilityMiles, Max Wind SpeedMPH, Mean Wind SpeedMPH, Max Gust SpeedMPH,PrecipitationIn, CloudCover, Events, WindDirDegrees
2013-6-1,80,72,64,68,65,63,100,78,58,29.90,29.80,29.71,10,10,2,20,10,29,0.00,4,Rain,218
2013-6-2,75,67,57,68,59,48,94,74,53,29.97,29.80,29.68,10,10,5,18,10,26,0.00,5,Rain,262
2013-6-3,66,57,48,50,44,36,88,61,37,30.08,30.03,29.97,10,10,10,12,6,17,0.00,2,,348
2013-6-4,68,58,48,52,48,37,93,65,45,30.19,30.15,30.08,10,10,10,10,3,9,0.00,0,,89
2013-6-5,69,61,53,54,46,37,72,55,46,30.16,30.08,29.98,10,10,10,14,6,20,0.00,0,,77
2013-6-6,71,64,57,55,50,43,72,63,53,29.99,29.89,29.84,10,10,10,10,5,16,0.00,2,,44
2013-6-7,62,58,53,55,53,52,94,79,72,29.90,29.88,29.85,10,10,10,9,4,,0.00,7,,8
2013-6-8,71,65,59,59,55,52,88,72,53,30.07,29.98,29.90,10,10,10,9,2,,0.00,5,,111
2013-6-9,73,66,59,63,59,55,88,74,57,30.10,30.04,29.94,10,10,7,17,7,28,0.00,5,Rain,98
2013-6-10,71,66,62,68,65,63,100,92,83,29.94,29.81,29.73,10,6,1,13,5,18,0.00,6,Rain,104
2013-6-11,82,73,64,70,65,63,100,77,51,29.90,29.84,29.76,10,8,3,15,6,17,0.00,4,,287
2013-6-12,78,71,64,70,66,63,100,83,65,29.93,29.83,29.63,10,7,1,13,3,17,0.00,1,Rain,104
2013-6-13,78,71,64,66,60,55,100,72,44,29.92,29.72,29.49,10,9,2,17,9,24,0.00,5,Rain,348
2013-6-14,77,68,59,61,57,54,88,70,47,30.06,30.01,29.91,10,10,10,12,4,18,0.00,2,,358
2013-6-15,80,68,57,64,60,55,100,75,45,30.10,30.02,29.94,10,10,7,13,3,20,0.00,1,Rain,233
2013-6-16,82,73,64,66,64,55,100,72,50,29.93,29.86,29.80,10,10,3,17,8,22,0.00,3,Rain,257
2013-6-17,87,74,60,70,61,55,94,66,33,29.92,29.89,29.84,10,10,5,13,3,18,0.00,1,Rain,256
2013-6-18,73,66,60,63,57,45,100,72,47,30.06,29.96,29.88,10,10,5,12,6,20,0.00,2,Rain,38
2013-6-19,73,62,50,55,50,43,82,64,50,30.16,30.12,30.06,10,10,7,10,4,,0.00,0,,96
2013-6-20,78,66,53,59,55,52,94,63,44,30.22,30.18,30.15,10,10,10,12,4,,0.00,0,,124
2013-6-21,87,76,66,70,62,57,83,60,40,30.21,30.15,30.07,10,10,7,10,4,,0.00,2,,170
2013-6-22,91,80,69,73,68,61,94,73,52,30.11,30.06,30.00,10,9,2,21,6,30,0.00,2,Rain,219
2013-6-23,89,79,69,72,70,64,100,74,49,30.09,30.04,29.98,10,8,2,21,5,36,0.00,1,Rain,225
2013-6-24,87,78,69,72,69,66,88,74,52,30.08,30.02,29.94,10,9,4,15,6,20,0.00,0,Rain,224
2013-6-25,89,79,69,75,70,66,94,79,58,30.01,29.90,29.81,10,9,2,18,9,25,0.00,3,Rain,253
2013-6-26,82,74,66,72,69,66,100,84,62,29.93,29.82,29.74,10,9,1,13,6,21,0.00,4,Rain,214
2013-6-27,80,74,68,72,69,66,100,88,69,29.77,29.71,29.64,10,7,1,12,2,16,0.00,5,Rain,86
2013-6-28,78,71,64,68,65,61,100,89,61,29.64,29.58,29.52,10,7,0,17,3,23,0.00,4,Fog-Rain,299
2013-6-29,71,66,62,66,64,61,100,89,78,29.72,29.61,29.54,10,8,2,6,1,,0.00,6,Rain,13
2013-6-30,77,70,62,63,61,59,94,76,57,29.92,29.82,29.72,10,10,7,13,4,20,0.00,4,Rain,46